SCP
0 0 0 0 0 0 0 0 0 0 0 0 0 0 -0 0 0 0 0 0 0 0 -0 -0 -0 -0 -0 0 -0 -0 -0 -0 0 0 0 0 0 0 0 0 0 0 0 0
0 0 0 0 0 0 0 0 0 0 0 0 0 0 0 0 -0 0 0 0 0 0 0 0 0 -0 -0 -0 -0 -0 -0 -0 0 -0 0 0 0 0 0 0 0 0 0 0
0 0 0 0 -0 -0 0 0 0 0 0 0 0 0 0 0 0 0 0 0 0 0 0 0 0 0 0 -0 -0 -0 -0 -0 -0 0 0 0 0 0 0 0 0 0 0 0
0 0 0 0 0 0 0 0 0 0 0 0 0 0 0 0 0 0 0 0 0 0 0 0 0 0 0 0 0 -0 -0 -0 0 0 0 -0 0 0 0 0 0 0 0 0
0 0 0 0 0 0 0 0 0 0 0 0 0 0 0 0 0 0 0 0 0 0 0 0 0 0 0 -0 0 0 0 0 0 0 0 0 -0 -0 -0 0 0 0 0 0
0 0 0 0 0 0 0 0 0 0 0 0 0 0 0 0 0 0 0 0 0 0 0 0 0 0 0 0 0 0 0 0 0 0 0 0 0 0 0 0 0 0 0 0
0 0 0 0 0 0 0 0 0 0 0 0 0 0 0 0 0 0 0 0 0 0 0 0 0 0 0 0 0 0 0 0 0 0 0 0 0 0 0 0 0 0 0 0
0 0 0 0 0 0 0 0 0 0 0 0 0 0 0 0 0 0 0 0 0 0 0 0 0 0 0 0 0 0 0 0 0 0 0 0 0 0 0 0 0 0 0 0
0 0 0 0 0 0 0 0 0 0 0 0 0 0 0 0 0 0 0 0 0 0 0 0 0 0 0 0 0 0 -0 -0 0 0 0 0 0 0 0 0 0 0 0 0
0 0 0 0 0 0 0 0 0 0 0 0 0 0 0 0 0 0 0 0 0 0 0 0 0 0 0 0 0 0 -0 -0 -0 -0 0 0 0 0 0 0 0 0 0 0
0 0 0 0 0 0 0 0 0 0 0 0 0 0 0 0 0 0 0 0 0 0 0 0 0 0 0 0 0 0 -0 -0 -0 0 0 0 0 0 0 0 0 0 0 0
0 0 0 0 0 0 0 0 0 0 0 0 0 0 0 0 0 0 0 0 0 0 0 0 0 0 0 0 0 0 -0 -0 0 0 0 0 0 0 0 0 0 0 0 0
0 0 0 0 0 0 0 0 0 0 0 0 0 0 0 0 0 0 0 0 0 0 0 0 0 0 0 0 0 0 0 0 0 0 0 0 0 0 0 0 0 0 0 0
0 0 0 0 0 0 0 0 0 0 0 0 0 0 0 0 0 0 0 0 0 0 0 0 0 0 0 0 0 0 -0 -0 -0 0 0 0 0 0 0 0 -0 0 0 0
0 0 0 0 0 0 0 0 0 0 0 0 0 0 0 0 0 0 0 0 0 0 0 0 0 0 0 0 0 0 0 0 0 0 0 0 0 0 0 0 0 0 0 0
0 0 0 0 0 0 0 0 0 0 0 0 0 0 0 0 0 0 0 0 0 0 0 0 0 0 0 0 0 0 0 0 -0 0 0 0 0 0 0 0 0 0 0 0
0 0 0 0 0 0 0 0 0 0 0 0 0 0 0 0 0 0 0 0 0 0 0 0 0 0 0 0 0 0 0 0 -0 0 0 0 0 0 0 0 0 0 0 0
0 0 0 0 0 0 0 0 0 0 0 0 0 0 0 0 0 0 0 0 0 0 0 0 0 0 0 0 0 0 0 0 -0 -0 0 0 0 0 0 0 0 0 0 0
0 0 0 0 0 0 0 0 0 0 0 0 0 0 0 0 0 0 0 0 0 0 0 0 0 0 0 0 0 0 0 0 -0 -0 0 0 0 0 0 0 0 0 0 0
0 0 0 0 0 0 0 0 0 0 0 0 0 0 0 0 0 0 0 0 0 0 0 0 0 0 0 0 0 0 0 0 -0 -0 0 0 0 0 0 0 -0 0 0 0
0 0 0 0 0 0 0 0 0 0 0 0 0 0 0 0 0 0 0 0 0 0 0 0 0 0 0 0 0 0 0 0 -0 -0 -0 0 0 0 0 -0 -0 -0 -0 0
0 0 0 0 0 0 0 0 0 0 0 0 0 0 0 0 0 0 0 0 0 0 0 0 0 0 0 0 0 0 0 0 -0 -0 0 0 0 0 -0 -0 -0 0 0 0
0 0 0 0 0 0 0 0 0 0 0 0 0 0 0 0 0 0 0 0 0 0 0 0 0 0 0 0 0 0 0 0 -0 -0 -0 0 0 -0 -0 -0 0 0 0 0
0 0 0 0 0 0 0 0 0 0 0 0 0 0 0 0 0 0 0 0 0 0 0 0 0 0 0 0 0 0 0 0 -0 -0 -0 0 0 -0 -0 -0 0 0 0 0
0 0 0 0 0 0 0 0 0 0 0 0 0 0 0 0 0 0 0 0 0 0 0 0 0 0 0 0 0 0 0 0 -0 -0 -0 -0 -0 -0 -0 -0 0 0 0 0
0 0 0 0 0 0 0 0 0 0 0 0 0 0 0 0 0 0 0 0 0 0 0 0 0 0 0 0 0 0 0 0 -0 -0 -0 -0 -0 -0 -0 -0 -0 0 0 0
0 0 0 0 0 0 0 0 0 0 0 0 0 0 0 0 0 0 0 0 0 0 0 0 0 0 0 0 0 0 0 0 -0 -0 -0 -0 -0 -0 -0 -0 -0 0 -0 -0
Wind_Speed_500mb
9 9 12 16 15 13 17 14 8 8 5 3 6 16 22 29 31 33 34 39 39 40 36 36 35 37 41 40 47 53 53 51 48 43 44 44 40 39 34 27 25 24 23 20
7 10 12 18 20 18 12 10 6 6 9 6 9 14 22 27 30 33 34 36 37 36 36 36 38 39 41 41 44 47 44 48 46 43 44 41 40 40 45 45 38 33 32 31
5 5 12 17 33 25 18 14 11 13 14 8 12 18 23 24 25 31 32 32 35 37 38 38 39 40 42 48 44 39 37 39 37 38 39 43 40 44 45 45 49 52 46 42
4 7 8 2 8 23 18 16 14 9 6 7 14 22 25 9 24 31 33 35 36 38 42 44 42 40 40 40 41 40 35 34 38 42 43 47 45 43 41 41 43 51 57 58
6 15 19 23 21 23 19 20 21 16 8 9 14 23 17 13 22 29 36 39 39 38 39 38 38 41 41 42 40 37 37 38 38 39 43 44 51 57 53 47 45 45 43 49
7 8 9 8 11 28 12 22 24 20 10 10 13 14 15 32 31 34 35 36 40 42 39 37 38 36 35 34 35 36 40 39 40 39 39 39 42 45 45 45 50 48 52 50
17 12 16 2 23 26 12 3 24 19 9 9 11 15 22 28 31 32 35 38 38 36 36 34 31 32 32 32 29 36 41 41 39 38 41 40 43 44 46 47 52 55 58 58
18 15 18 28 31 21 10 19 20 13 9 8 9 12 19 24 28 31 34 37 34 32 31 29 30 30 30 32 35 40 43 45 46 43 42 42 44 48 51 54 55 61 65 66
20 13 6 35 18 30 16 19 15 8 8 9 8 12 17 21 24 27 30 32 30 29 29 30 31 32 34 35 37 38 40 44 49 52 51 44 49 51 54 54 57 61 59 65
17 26 19 30 41 31 23 18 15 12 14 11 9 11 14 18 22 25 27 28 30 30 31 34 34 34 36 38 40 40 43 45 44 47 54 58 62 59 55 58 56 56 60 63
24 19 19 33 40 33 30 22 19 16 16 12 8 8 11 16 20 23 25 27 30 31 37 40 41 40 38 40 41 45 47 46 46 51 54 56 58 55 58 59 57 63 62 64
14 36 34 25 45 39 39 32 26 24 20 13 8 6 9 13 17 20 25 28 31 34 38 42 45 43 43 43 41 45 51 53 57 62 64 63 68 69 62 60 61 64 67 66
35 18 22 22 22 31 43 36 30 28 21 17 10 6 7 11 15 22 24 27 31 36 39 41 42 44 42 46 46 49 51 55 60 64 63 67 66 65 74 71 68 67 65 62
38 31 28 30 28 26 33 35 31 26 21 15 10 7 7 11 16 21 25 28 32 37 39 40 40 42 47 47 53 51 52 58 58 64 66 65 62 68 66 73 79 81 72 68
36 39 36 30 32 35 33 36 34 28 21 15 11 9 11 15 18 21 26 30 35 38 39 43 43 50 45 50 51 52 59 56 63 63 63 60 64 65 63 71 74 75 74 68
35 38 40 35 40 35 39 38 35 28 22 16 12 11 14 18 22 25 27 31 35 38 40 46 48 49 46 54 51 55 58 60 62 60 66 65 66 64 69 70 74 69 68 71
44 46 47 41 44 43 42 38 32 27 20 15 11 13 16 21 25 26 29 29 33 37 43 46 51 48 49 50 51 56 61 63 59 63 64 63 62 66 67 72 65 71 72 67
43 43 45 44 46 43 40 35 29 23 16 11 12 18 24 26 27 29 33 36 41 45 46 47 51 50 50 52 56 60 61 58 58 66 65 63 61 62 66 60 64 67 68 66
39 39 42 45 46 40 37 33 26 22 18 15 16 19 22 23 26 30 34 41 45 48 41 50 51 54 53 50 57 63 57 56 60 64 61 61 63 63 60 60 63 63 63 64
42 37 37 43 42 41 37 37 30 19 13 12 14 17 19 20 25 31 34 39 37 36 47 46 54 55 50 50 58 63 51 56 61 60 64 62 61 63 60 60 58 60 59 58
42 35 41 50 49 46 40 29 20 13 10 12 15 18 22 25 27 31 35 32 36 38 40 52 54 53 50 55 61 53 54 56 59 59 61 61 61 59 60 61 59 58 56 55
44 53 59 57 54 43 30 21 14 10 10 10 13 17 22 25 26 28 34 36 36 36 47 51 53 52 51 52 55 53 55 56 58 57 57 57 56 58 58 57 56 54 52 51
47 56 55 50 41 31 21 14 10 8 9 12 15 20 25 28 27 28 38 36 36 40 44 49 49 50 48 46 51 55 53 55 57 56 55 54 54 53 52 51 51 49 48 46
47 45 48 40 28 19 13 8 6 8 9 12 17 21 24 24 33 33 35 45 44 44 46 48 45 48 45 45 50 50 54 54 54 54 51 51 51 52 48 48 47 44 41 39
45 41 35 27 21 15 10 5 1 4 7 7 13 17 22 26 34 38 42 46 50 48 48 49 44 48 45 43 48 52 53 53 52 51 48 48 49 49 46 44 42 39 35 33
37 29 24 19 16 13 10 6 5 4 9 14 17 25 29 33 37 40 45 46 47 48 50 45 47 44 45 40 46 50 49 52 49 46 45 45 45 44 41 39 36 32 30 29
30 26 20 16 12 10 7 4 7 9 15 21 24 28 33 36 39 43 47 49 49 50 52 48 44 43 42 40 44 47 49 49 47 46 41 41 40 38 35 32 28 27 26 26
Wind_Direction_500mb
284 286 258 259 263 252 224 235 275 127 271 83 350 333 343 344 347 347 354 352 355 354 355 355 355 353 351 352 348 347 348 347 345 340 336 335 336 339 328 332 335 336 340 342
294 239 250 255 251 244 233 222 168 234 229 107 302 320 337 336 347 348 348 344 344 345 345 344 342 341 339 338 339 335 338 337 335 330 331 323 322 318 318 322 319 315 315 307
265 240 284 268 235 223 210 217 249 229 49 354 327 337 335 335 350 344 344 343 339 338 338 335 333 331 329 331 333 332 333 334 333 332 332 323 322 317 313 307 308 309 307 302
287 267 245 268 183 209 226 219 220 259 261 328 324 322 309 342 345 343 342 338 334 332 328 329 330 330 330 331 333 334 337 332 331 330 328 326 326 322 313 308 303 300 300 303
228 212 282 238 220 203 208 228 226 238 211 274 318 308 79 22 348 339 333 330 330 329 328 328 329 330 330 331 332 336 335 334 332 331 327 329 326 322 323 317 314 309 298 293
179 251 245 52 151 189 209 258 226 207 222 275 312 292 23 357 343 335 333 332 331 332 332 332 331 330 332 331 330 328 331 329 328 326 322 319 317 320 316 319 315 310 305 301
212 243 274 196 152 150 187 120 145 176 216 281 278 337 328 328 330 331 331 333 334 336 337 334 336 341 337 334 333 320 321 324 324 323 321 319 317 315 317 314 312 310 307 306
221 217 251 168 157 202 138 136 148 183 232 244 279 307 315 320 325 328 331 333 338 340 339 340 338 336 334 330 327 325 323 323 324 321 318 315 313 314 314 312 311 311 310 307
192 209 199 175 185 195 180 173 187 218 226 220 257 296 313 319 325 328 331 332 335 332 329 328 334 332 328 329 326 326 321 320 317 317 319 318 316 316 314 314 314 313 310 308
190 233 208 208 203 202 195 206 208 225 212 206 259 292 306 318 326 329 329 329 328 323 318 320 325 325 323 323 326 326 323 318 317 314 307 312 320 317 312 313 313 310 306 302
231 237 203 210 213 203 206 212 211 215 205 211 239 277 305 318 325 325 324 322 319 314 310 310 315 318 319 323 322 321 321 320 313 310 313 311 312 309 310 313 311 309 302 301
224 224 217 226 218 216 213 213 218 207 199 202 202 254 301 315 320 323 320 321 318 312 307 306 312 314 316 320 320 319 319 317 316 317 318 317 318 318 317 315 312 308 309 305
236 219 231 215 208 218 216 209 213 203 202 198 207 228 283 299 311 316 321 323 320 317 314 313 313 313 318 318 320 320 317 316 316 321 318 321 318 317 316 316 314 312 312 310
229 229 213 216 209 200 196 195 188 192 189 187 198 228 267 291 307 312 322 321 320 320 317 315 315 317 319 311 321 321 317 316 318 318 317 319 315 318 317 318 318 319 322 321
222 219 217 207 199 196 191 185 187 188 188 193 209 231 261 284 295 305 317 320 321 320 321 319 314 316 316 315 323 318 321 318 317 318 319 320 322 322 316 316 317 316 317 317
212 207 202 202 196 194 192 191 192 192 194 199 215 245 269 285 293 301 311 314 317 320 321 320 317 316 310 318 322 321 323 320 321 321 320 325 324 318 315 316 315 316 318 318
199 203 203 203 195 191 193 193 194 195 197 205 232 260 279 288 294 297 302 310 310 311 315 319 328 327 315 322 326 324 323 324 324 322 325 325 322 320 317 319 319 318 316 317
206 207 204 199 190 188 192 191 190 190 193 208 242 272 289 292 298 296 307 308 313 314 320 325 329 331 322 322 327 327 327 325 325 324 325 324 319 319 322 320 321 319 320 319
194 194 195 195 193 192 190 187 184 185 210 255 284 297 299 304 303 303 306 306 311 315 320 322 324 327 329 325 325 328 328 326 325 323 323 321 323 324 323 324 322 321 321 321
187 190 195 194 191 188 178 182 190 204 235 272 295 301 307 311 310 309 308 309 318 308 314 319 322 326 331 322 323 328 327 324 325 324 325 325 324 326 325 323 322 323 324 324
179 173 167 167 165 171 184 181 193 215 253 280 294 304 309 316 317 320 319 315 312 313 309 314 324 328 328 322 324 331 326 325 326 325 324 326 328 325 325 325 326 326 326 327
163 165 166 169 171 172 173 185 207 234 261 284 300 307 315 322 318 319 309 313 318 308 311 314 318 321 318 318 328 329 326 325 325 325 325 327 328 326 326 327 327 328 328 329
168 170 164 163 167 170 176 193 224 260 286 294 303 312 317 318 321 313 310 321 312 316 315 314 316 320 323 319 328 328 326 326 325 326 325 328 330 328 328 329 331 331 333 335
150 153 155 159 163 170 181 204 259 283 294 312 317 317 321 318 315 320 315 318 316 313 315 320 320 324 324 317 324 328 328 327 327 325 327 331 333 333 333 334 335 336 339 343
147 145 146 145 147 156 165 193 276 325 316 305 306 313 312 316 314 318 316 318 319 318 312 312 318 318 322 317 327 328 327 327 326 328 329 333 335 336 338 339 340 342 346 349
134 134 136 143 150 153 160 165 188 266 293 304 307 305 315 319 320 321 320 322 319 313 316 311 313 318 321 320 320 327 327 325 325 328 331 334 337 338 341 343 347 354 1 2
131 131 134 136 142 145 164 209 263 276 290 299 306 312 315 319 320 321 322 322 323 321 317 311 312 313 318 313 317 325 324 324 327 330 332 335 337 340 344 349 359 11 16 20
Wind_Speed_850mb
9 9 12 16 15 13 17 14 8 8 5 3 6 16 22 29 31 33 34 39 39 40 36 36 35 37 41 40 47 53 53 51 48 43 44 44 40 39 34 27 25 24 23 20
7 10 12 18 20 18 12 10 6 6 9 6 9 14 22 27 30 33 34 36 37 36 36 36 38 39 41 41 44 47 44 48 46 43 44 41 40 40 45 45 38 33 32 31
5 5 12 17 33 25 18 14 11 13 14 8 12 18 23 24 25 31 32 32 35 37 38 38 39 40 42 48 44 39 37 39 37 38 39 43 40 44 45 45 49 52 46 42
4 7 8 2 8 23 18 16 14 9 6 7 14 22 25 9 24 31 33 35 36 38 42 44 42 40 40 40 41 40 35 34 38 42 43 47 45 43 41 41 43 51 57 58
6 15 19 23 21 23 19 20 21 16 8 9 14 23 17 13 22 29 36 39 39 38 39 38 38 41 41 42 40 37 37 38 38 39 43 44 51 57 53 47 45 45 43 49
7 8 9 8 11 28 12 22 24 20 10 10 13 14 15 32 31 34 35 36 40 42 39 37 38 36 35 34 35 36 40 39 40 39 39 39 42 45 45 45 50 48 52 50
17 12 16 2 23 26 12 3 24 19 9 9 11 15 22 28 31 32 35 38 38 36 36 34 31 32 32 32 29 36 41 41 39 38 41 40 43 44 46 47 52 55 58 58
18 15 18 28 31 21 10 19 20 13 9 8 9 12 19 24 28 31 34 37 34 32 31 29 30 30 30 32 35 40 43 45 46 43 42 42 44 48 51 54 55 61 65 66
20 13 6 35 18 30 16 19 15 8 8 9 8 12 17 21 24 27 30 32 30 29 29 30 31 32 34 35 37 38 40 44 49 52 51 44 49 51 54 54 57 61 59 65
17 26 19 30 41 31 23 18 15 12 14 11 9 11 14 18 22 25 27 28 30 30 31 34 34 34 36 38 40 40 43 45 44 47 54 58 62 59 55 58 56 56 60 63
24 19 19 33 40 33 30 22 19 16 16 12 8 8 11 16 20 23 25 27 30 31 37 40 41 40 38 40 41 45 47 46 46 51 54 56 58 55 58 59 57 63 62 64
14 36 34 25 45 39 39 32 26 24 20 13 8 6 9 13 17 20 25 28 31 34 38 42 45 43 43 43 41 45 51 53 57 62 64 63 68 69 62 60 61 64 67 66
35 18 22 22 22 31 43 36 30 28 21 17 10 6 7 11 15 22 24 27 31 36 39 41 42 44 42 46 46 49 51 55 60 64 63 67 66 65 74 71 68 67 65 62
38 31 28 30 28 26 33 35 31 26 21 15 10 7 7 11 16 21 25 28 32 37 39 40 40 42 47 47 53 51 52 58 58 64 66 65 62 68 66 73 79 81 72 68
36 39 36 30 32 35 33 36 34 28 21 15 11 9 11 15 18 21 26 30 35 38 39 43 43 50 45 50 51 52 59 56 63 63 63 60 64 65 63 71 74 75 74 68
35 38 40 35 40 35 39 38 35 28 22 16 12 11 14 18 22 25 27 31 35 38 40 46 48 49 46 54 51 55 58 60 62 60 66 65 66 64 69 70 74 69 68 71
44 46 47 41 44 43 42 38 32 27 20 15 11 13 16 21 25 26 29 29 33 37 43 46 51 48 49 50 51 56 61 63 59 63 64 63 62 66 67 72 65 71 72 67
43 43 45 44 46 43 40 35 29 23 16 11 12 18 24 26 27 29 33 36 41 45 46 47 51 50 50 52 56 60 61 58 58 66 65 63 61 62 66 60 64 67 68 66
39 39 42 45 46 40 37 33 26 22 18 15 16 19 22 23 26 30 34 41 45 48 41 50 51 54 53 50 57 63 57 56 60 64 61 61 63 63 60 60 63 63 63 64
42 37 37 43 42 41 37 37 30 19 13 12 14 17 19 20 25 31 34 39 37 36 47 46 54 55 50 50 58 63 51 56 61 60 64 62 61 63 60 60 58 60 59 58
42 35 41 50 49 46 40 29 20 13 10 12 15 18 22 25 27 31 35 32 36 38 40 52 54 53 50 55 61 53 54 56 59 59 61 61 61 59 60 61 59 58 56 55
44 53 59 57 54 43 30 21 14 10 10 10 13 17 22 25 26 28 34 36 36 36 47 51 53 52 51 52 55 53 55 56 58 57 57 57 56 58 58 57 56 54 52 51
47 56 55 50 41 31 21 14 10 8 9 12 15 20 25 28 27 28 38 36 36 40 44 49 49 50 48 46 51 55 53 55 57 56 55 54 54 53 52 51 51 49 48 46
47 45 48 40 28 19 13 8 6 8 9 12 17 21 24 24 33 33 35 45 44 44 46 48 45 48 45 45 50 50 54 54 54 54 51 51 51 52 48 48 47 44 41 39
45 41 35 27 21 15 10 5 1 4 7 7 13 17 22 26 34 38 42 46 50 48 48 49 44 48 45 43 48 52 53 53 52 51 48 48 49 49 46 44 42 39 35 33
37 29 24 19 16 13 10 6 5 4 9 14 17 25 29 33 37 40 45 46 47 48 50 45 47 44 45 40 46 50 49 52 49 46 45 45 45 44 41 39 36 32 30 29
30 26 20 16 12 10 7 4 7 9 15 21 24 28 33 36 39 43 47 49 49 50 52 48 44 43 42 40 44 47 49 49 47 46 41 41 40 38 35 32 28 27 26 26
Wind_Direction_850mb
284 286 258 259 263 252 224 235 275 127 271 83 350 333 343 344 347 347 354 352 355 354 355 355 355 353 351 352 348 347 348 347 345 340 336 335 336 339 328 332 335 336 340 342
294 239 250 255 251 244 233 222 168 234 229 107 302 320 337 336 347 348 348 344 344 345 345 344 342 341 339 338 339 335 338 337 335 330 331 323 322 318 318 322 319 315 315 307
265 240 284 268 235 223 210 217 249 229 49 354 327 337 335 335 350 344 344 343 339 338 338 335 333 331 329 331 333 332 333 334 333 332 332 323 322 317 313 307 308 309 307 302
287 267 245 268 183 209 226 219 220 259 261 328 324 322 309 342 345 343 342 338 334 332 328 329 330 330 330 331 333 334 337 332 331 330 328 326 326 322 313 308 303 300 300 303
228 212 282 238 220 203 208 228 226 238 211 274 318 308 79 22 348 339 333 330 330 329 328 328 329 330 330 331 332 336 335 334 332 331 327 329 326 322 323 317 314 309 298 293
179 251 245 52 151 189 209 258 226 207 222 275 312 292 23 357 343 335 333 332 331 332 332 332 331 330 332 331 330 328 331 329 328 326 322 319 317 320 316 319 315 310 305 301
212 243 274 196 152 150 187 120 145 176 216 281 278 337 328 328 330 331 331 333 334 336 337 334 336 341 337 334 333 320 321 324 324 323 321 319 317 315 317 314 312 310 307 306
221 217 251 168 157 202 138 136 148 183 232 244 279 307 315 320 325 328 331 333 338 340 339 340 338 336 334 330 327 325 323 323 324 321 318 315 313 314 314 312 311 311 310 307
192 209 199 175 185 195 180 173 187 218 226 220 257 296 313 319 325 328 331 332 335 332 329 328 334 332 328 329 326 326 321 320 317 317 319 318 316 316 314 314 314 313 310 308
190 233 208 208 203 202 195 206 208 225 212 206 259 292 306 318 326 329 329 329 328 323 318 320 325 325 323 323 326 326 323 318 317 314 307 312 320 317 312 313 313 310 306 302
231 237 203 210 213 203 206 212 211 215 205 211 239 277 305 318 325 325 324 322 319 314 310 310 315 318 319 323 322 321 321 320 313 310 313 311 312 309 310 313 311 309 302 301
224 224 217 226 218 216 213 213 218 207 199 202 202 254 301 315 320 323 320 321 318 312 307 306 312 314 316 320 320 319 319 317 316 317 318 317 318 318 317 315 312 308 309 305
236 219 231 215 208 218 216 209 213 203 202 198 207 228 283 299 311 316 321 323 320 317 314 313 313 313 318 318 320 320 317 316 316 321 318 321 318 317 316 316 314 312 312 310
229 229 213 216 209 200 196 195 188 192 189 187 198 228 267 291 307 312 322 321 320 320 317 315 315 317 319 311 321 321 317 316 318 318 317 319 315 318 317 318 318 319 322 321
222 219 217 207 199 196 191 185 187 188 188 193 209 231 261 284 295 305 317 320 321 320 321 319 314 316 316 315 323 318 321 318 317 318 319 320 322 322 316 316 317 316 317 317
212 207 202 202 196 194 192 191 192 192 194 199 215 245 269 285 293 301 311 314 317 320 321 320 317 316 310 318 322 321 323 320 321 321 320 325 324 318 315 316 315 316 318 318
199 203 203 203 195 191 193 193 194 195 197 205 232 260 279 288 294 297 302 310 310 311 315 319 328 327 315 322 326 324 323 324 324 322 325 325 322 320 317 319 319 318 316 317
206 207 204 199 190 188 192 191 190 190 193 208 242 272 289 292 298 296 307 308 313 314 320 325 329 331 322 322 327 327 327 325 325 324 325 324 319 319 322 320 321 319 320 319
194 194 195 195 193 192 190 187 184 185 210 255 284 297 299 304 303 303 306 306 311 315 320 322 324 327 329 325 325 328 328 326 325 323 323 321 323 324 323 324 322 321 321 321
187 190 195 194 191 188 178 182 190 204 235 272 295 301 307 311 310 309 308 309 318 308 314 319 322 326 331 322 323 328 327 324 325 324 325 325 324 326 325 323 322 323 324 324
179 173 167 167 165 171 184 181 193 215 253 280 294 304 309 316 317 320 319 315 312 313 309 314 324 328 328 322 324 331 326 325 326 325 324 326 328 325 325 325 326 326 326 327
163 165 166 169 171 172 173 185 207 234 261 284 300 307 315 322 318 319 309 313 318 308 311 314 318 321 318 318 328 329 326 325 325 325 325 327 328 326 326 327 327 328 328 329
168 170 164 163 167 170 176 193 224 260 286 294 303 312 317 318 321 313 310 321 312 316 315 314 316 320 323 319 328 328 326 326 325 326 325 328 330 328 328 329 331 331 333 335
150 153 155 159 163 170 181 204 259 283 294 312 317 317 321 318 315 320 315 318 316 313 315 320 320 324 324 317 324 328 328 327 327 325 327 331 333 333 333 334 335 336 339 343
147 145 146 145 147 156 165 193 276 325 316 305 306 313 312 316 314 318 316 318 319 318 312 312 318 318 322 317 327 328 327 327 326 328 329 333 335 336 338 339 340 342 346 349
134 134 136 143 150 153 160 165 188 266 293 304 307 305 315 319 320 321 320 322 319 313 316 311 313 318 321 320 320 327 327 325 325 328 331 334 337 338 341 343 347 354 1 2
131 131 134 136 142 145 164 209 263 276 290 299 306 312 315 319 320 321 322 322 323 321 317 311 312 313 318 313 317 325 324 324 327 330 332 335 337 340 344 349 359 11 16 20